LEMUR-2-DJUPROERA (46316 NORAD) Tracking and Keplerian Element Data

This shows tracking and keplerian element data for the satellite.

Feedback or suggestion? Click here.




ElementValue
Catalog46316
NameLEMUR-2-DJUPROERA
Epoch Orbit305
Epoch Day267.47621307
Epoch Year2020
RAAN340.2597
Inclination97.5182
Eccentricity0.0003023
Argument of Perigee152.8888
Mean Anonmoly207.25
Mean Motion15.10924049
Decay Rate1.317E-05
L11 46316U 20061AW 20267.47621307 .00001317 00000-0 82839-4 0 9992
L22 46316 97.5182 340.2597 0003023 152.8888 207.2500 15.10924049 3051

Live tracking and technical data element details for LEMUR-2-DJUPROERA (NORAD 46316). LEMUR-2-DJUPROERA can be tracked NOW for your location showing map with azimuth and elevation plus other details from your city location.

Track the satellite on the map from your city or location and see movement details for azimuth, elevation, latitude, longitude, range, height, and movement on the map or in text.







IsCatalogInMostPopularTable: catalog: 46316, numindb: 1
Update: records affected: 1



GetName: 46316 LEMUR-2-DJUPROERA

Hit Count: updated at: Thu, 24 Sep 2020 16:45:51 GMT